Regional Weather Roundup
Issued by NWS

Home | Current Version | Previous Version | Graphics & Text | Print | Product List | Glossary On
Versions: 1 2 3 4 5 6 7 8 9 10 11 12 13 14 15 16 17 18 19 20 21 22 23 24 25 26 27 28 29 30 31 32 33 34 35 36 37 38 39 40 41 42 43 44 45 46 47 48 49 50
000
ASUS43 KMPX 280510
RWRMN
WEATHER ROUNDUP FOR MINNESOTA
NATIONAL WEATHER SERVICE TWIN CITIES/CHANHASSEN MN
1200 AM CDT THU JUL 28 2016


NOTE: "FAIR" INDICATES FEW OR NO CLOUDS BELOW 12,000 FEET WITH NO
SIGNIFICANT WEATHER AND/OR OBSTRUCTIONS TO VISIBILITY. N/A MEANS
CURRENT SKY AND/OR WEATHER CONDITIONS ARE NOT AVAILABLE.

MNZ060>063-068>070-280600-
   Twin Cities Metro

CITY           SKY/WX    TMP DP  RH WIND       PRES   REMARKS
TWIN CITIES    CLOUDY    68  64  87 N13       29.98S
ST PAUL        LGT RAIN  69  65  86 N9        29.98S
CRYSTAL        CLOUDY    67  62  84 N10       29.98S
BLAINE         CLOUDY    68  66  94 N12       29.99F
LAKEVILLE      CLOUDY    66  66 100 N6        29.98S
EDEN PRAIRIE   MOCLDY    68  63  84 N10       29.98R
LAKEVILLE      CLOUDY    66  66 100 N6        29.98S
SOUTH ST PAUL  RAIN      69  66  89 N8        29.97S
LAKE ELMO      CLOUDY    68  66  94 N5        29.99S
$$
MNZ001>005-007-008-013>017-022>024-027-028-280600-
   Northwest Minnesota

CITY           SKY/WX    TMP DP  RH WIND       PRES   REMARKS
BEMIDJI        CLOUDY    63  61  94 CALM      30.07S
HALLOCK        CLEAR     61  57  88 N7        30.11S
ROSEAU         CLEAR     59  54  82 NE3       30.13R
WARROAD        CLEAR     64  57  77 N10       30.13R
THIEF RVR FALL MOCLDY    66  58  75 NE10      30.10S
CROOKSTON      PTCLDY    64  61  88 N5        30.08S
FOSSTON        CLOUDY    64  61  88 NE6       30.08F
DETROIT LAKES  CLOUDY    64  63  94 NE3       30.07S
MOORHEAD       CLOUDY    64  61  88 N8        30.06S
PARK RAPIDS    CLOUDY    66  62  87 CALM      30.07S
MAHNOMEN       CLOUDY    64  63  94 N3        30.06F
$$
MNZ006-009>011-018-025>026-280600-
   North Central Minnesota

CITY           SKY/WX    TMP DP  RH WIND       PRES   REMARKS
BAUDETTE       PTCLDY    61  54  77 N9        30.11R
FLAG ISLAND    CLEAR     63  54  72 NE9       30.12R
INTL FALLS     CLEAR     63  54  72 NE6       30.09R
WASKISH        CLOUDY    63  57  82 NE5       30.09S
BIG FORK       MOCLDY    61  57  88 CALM      30.09R
LONGVILLE      CLOUDY    63  63 100 CALM      30.07F
GRAND RAPIDS   PTCLDY    57  57 100 S3        30.10R FOG
CRANE LAKE     CLEAR     52  52 100 CALM      30.10R
ORR            CLEAR     57  54  88 CALM      30.06R
COOK           CLEAR     57  57 100 CALM      30.08R
WALKER         FAIR      61  60  95 CALM      30.06F
$$
MNZ012-019>021-037-280600-
   Northeast Minnesota

CITY           SKY/WX    TMP DP  RH WIND       PRES   REMARKS
DULUTH         PTCLDY    57  55  93 NE3       30.07R
ELY            CLEAR     57  57 100 CALM      30.08R
HIBBING        FOG       54  54 100 CALM      30.07R VSB 1/4
EVELETH        PTCLDY    58  57  97 CALM      30.09R FOG
DULUTH HARBOR  CLEAR     63  59  88 NE7       30.05S
TWO HARBORS    CLEAR     61  55  82 N3        30.04R
SILVER BAY     CLOUDY    61  57  88 CALM      30.04S
GRAND MARAIS     N/A     57  55  93 CALM      30.05R
$$
MNZ029>031-032-039>041-046>048-054>057-064-280600-
   West Central Minnesota

CITY           SKY/WX    TMP DP  RH WIND       PRES   REMARKS
FERGUS FALLS   CLOUDY    64  63  94 CALM      30.06S
WHEATON        CLOUDY    66  61  82 NW6       30.07R
MORRIS         MOCLDY    63  61  94 N5        30.03S
ALEXANDRIA     CLOUDY    66  62  87 NE7       30.05F
ELBOW LAKE     FAIR      64  61  90 NE3       30.04S
WADENA         CLOUDY    63  61  94 CALM      30.05S
GLENWOOD       PTCLDY    64  63  94 NE7       30.05S
APPLETON       CLOUDY    64  59  82 NW5       30.03R
BENSON         PTCLDY    63  57  82 N6        30.03S
ORTONVILLE     PTCLDY    66  57  72 NW5       30.05R
MADISON        CLOUDY    64  59  82 NW5       30.04S
WILLMAR        CLOUDY    70  64  83 NE3       30.03F
$$
MNZ033>034-036-042>043-049>051-058-059-280600-
   Central Minnesota

CITY           SKY/WX    TMP DP  RH WIND       PRES   REMARKS
ST CLOUD       CLEAR     63  62  97 N7        30.02F
SAUK CENTRE    FAIR      65  63  93 NE3       30.04F
PAYNESVILLE    CLOUDY    65  65  99 NE3       30.04S
AITKIN         MOCLDY    63  57  82 N3        30.04F
PINE RIVER     CLOUDY    64  63  94 N5        30.09S
BRAINERD       CLOUDY    64  61  90 E3        30.05F
STAPLES        CLOUDY    64  61  88 CALM      30.05S
LONG PRAIRIE   CLOUDY    64  61  88 N3        30.05S
LITTLE FALLS   CLEAR     63  59  88 CALM      30.04F
LITCHFIELD     MOCLDY    68  66  94 N3        30.02F
BUFFALO        CLOUDY    65  62  88 CALM      30.02S
MAPLE LAKE     CLOUDY    66  64  91 N5        30.02S
HUTCHINSON     CLEAR     67  65  93 N3        30.02F
$$
MNZ037-044-045-052-053-280600-
   East Central Minnesota

CITY           SKY/WX    TMP DP  RH WIND       PRES   REMARKS
PRINCETON      CLOUDY    64  61  88 N10       30.02F
MORA           PTCLDY    59  55  88 CALM      30.05F
CAMBRIDGE      CLOUDY    64  57  77 N5        30.00F
RUSH CITY      RAIN      62  61  94 N7        30.02F
MOOSE LAKE     CLEAR     57  54  88 CALM      30.04R
HINCKLEY       CLOUDY    59  59 100 N3        30.04F
CLOQUET        CLEAR     55  54  94 CALM      30.06R
MCGREGOR       CLOUDY    61  59  94 CALM      30.07S
$$
MNZ071>073-080-081-089-090-097-098-280600-
   Southwest Minnesota

CITY           SKY/WX    TMP DP  RH WIND       PRES   REMARKS
MONTEVIDEO     CLOUDY    64  59  82 NW5       30.05R
GRANITE FALLS  CLOUDY    67  62  84 NW7       30.04S
CANBY          PTCLDY    64  60  85 NW5       30.06S
MARSHALL       CLOUDY    63  61  93 NW8       30.04S
REDWOOD FALLS  PTCLDY    68  63  84 N6        30.01S
OLIVIA         MOCLDY    68  63  83 N5        30.01S
PIPESTONE      CLOUDY    66  59  77 NE3       30.06R
WINDOM         CLOUDY    66  63  88 NW3       30.02F
WORTHINGTON    CLOUDY    66  63  90 NW8       30.04S
JACKSON        CLEAR     66  63  88 CALM      30.03S
TRACY          CLOUDY    67  63  87 NW6       30.04S
SLAYTON        PTCLDY    65  60  83 NW6       30.06R
$$
MNZ065>067-074>077-082>085-091>093-280600-
   South Central Minnesota

CITY           SKY/WX    TMP DP  RH WIND       PRES   REMARKS
MANKATO        CLEAR     66  61  82 N7        29.99F
NEW ULM        CLEAR     68  64  88 NE6       30.00S
ST JAMES       CLEAR     61  61 100 NW3       30.01S
FAIRMONT       MOCLDY    68  64  88 NW5       30.00S
GLENCOE        CLEAR     66  65  97 N3        30.00F
FARIBAULT      MOCLDY    66  64  94 CALM      29.99S
OWATONNA       MOCLDY    68  64  88 NW3       29.98S
WASECA         CLEAR     64  63  94 N7        30.01R
ALBERT LEA     CLEAR     68  66  94 N6        29.98S
$$
MNZ078>079-086>088-094>096-280600-
   Southeast Minnesota

CITY           SKY/WX    TMP DP  RH WIND       PRES   REMARKS
ROCHESTER      MOCLDY    67  67 100 NW7       29.97F
RED WING       CLOUDY    70  66  88 CALM      29.95S
STANTON        CLOUDY    68  64  88 N5        29.96S
DODGE CENTER   PTCLDY    66  64  94 N5        29.98S
WINONA         CLOUDY    70  68  94 CALM      29.94S
AUSTIN         CLOUDY    66  64  94 N5        29.98S
PRESTON        CLOUDY    69  65  88 NW6       29.97F
$$
ABBREVIATIONS USED IN REMARKS
   TC - TEMPERATURES IN CELSIUS
  WCI - WIND CHILL INDEX
   HX - HEAT INDEX
  VSB - VISIBILITY
$$



USA.gov is the U.S. government's official web portal to all federal, state and local government web resources and services.